INMARSAT 5-F4

Last updated on Mon Oct 14 2024 00:02:40 GMT+0000 (Coordinated Universal Time)

1 42698U 17025A 24286.24979892 .00000075 00000+0 00000+0 0 9996 2 42698 0.0188 203.0190 0000296 359.9344 324.8071 1.00272802 27137
UTC large
Height (km)
Speed (km/s)
/
Latitude / Longitude
Inclination (degrees)
Orbital Period (minutes)
Azimuth
Elevation
Range (km)
Doppler Factor

Next 0 passes for location: London (51.5072 / 0.1276)

Sorry there are no passes over London.